Location: Casone le Fosse
(44.6547°N, 12.1103°E)
Time: 10:48:16
(UTC+00:00)

Meteor 2-3 Rocket - Pass Details

Date: 29 October 2020
Orbit: 843 x 885 km, 81.2° (Epoch: 27 November)

Event Time Altitude Azimuth Distance (km) Brightness Sun altitude
Rises 18:12:43 0° 354° (N) 3,460 7.0 -23.4°
Reaches altitude 10° 18:15:14 10° 359° (N) 2,525 6.2 -23.8°
Enters shadow 18:19:35 42° 38° (NE) 1,224 4.2 -24.6°
